CZ-6A DEB, 56647

Orbit data source: Space-Track

CZ-6A DEB, 56647 is space debris in SSO originally from a launch on Fri, 11 Nov 2022 UTC launched from the Taiyaun Space Center, China (TSC). Debris objects in space refer to the collection of defunct objects orbiting the Earth. Examples of debris include non-operational satellites, rocket bodies, and fragments generated from explosions, collisions, or faulty payload assembly.

Loading next visibility...
Identifier
56647, 2022-151AFX
Orbit
SSO
Country
Flag of CNCN / PRC
Related business
Manufacturer
SAST
Mission
Spacecraft
Bus & Motor
Unknown
Mass
Unknown
Launch date (UTC)
2022-11-11 (4 years ago)
Launch vehicle
Unknown
Launch site
Taiyaun Space Center, China (TSC)
Object type
Payload
Rocket body
Debris
Shape & HBR
Unknown shape, 0.1 m
Radar Cross Section
Small (<0.1 m²)

Expand to show TLE details & history
Last TLE update: 4 days ago

TLE from 4 days ago
0 CZ-6A DEB
1 56647U 22151AFX 26233.25780838  .00001801  00000-0  88287-3 0  9992
2 56647  98.8169 240.2375 0041859 124.2694 236.2456 14.18603283180462
Epoch: 2026-08-21T06:11Z
TLE epoch observation values (Epoch: 2026-08-21T06:11:14.644Z)
Latitude
-0.00002°
Longitude
177.84133°
Altitude
849.845 km
Speed
7.419 km/s
True Right ascension
16h 00m 57s
True Declination
0° 00' 00"
Sunlit
Object was in daylight at epoch
Visualization orbit readout
Latitude
Unknown
Longitude
Unknown
Altitude
Unknown
Speed
Unknown
Apparent Right ascension
Unknown
Apparent Declination
Unknown
Sunlit
N/A
Visualization observer readout
Local Sidereal Time
10:16:32
Azimuth
Unknown
Elevation
Unknown
Doppler factor
Unknown
Orbital elements
Apogee altitude
857.407 km
Perigee altitude
797.085 km
Semi-major axis
7,205.383 km
Eccentricity
0.00419
Inclination
98.8169°
RAAN
240.2375°
Arg. of periapsis
124.2694°
True anomaly
235.84795°
Mean anomaly
236.2456°
Eccentric anomaly
236.04666°
Mean motion
3.5486 °/min
Orbital period
101.45 mins
BSTAR
0.00088287
Loading maneuver chart data...
Computing Atmospheric mass density...

Documentation

Showing up to 5 results
|